Hourly Weather Kizva

Today, 30 July, Friday

Time Temperature Precipitation Wind Pressure Humidity
00:00 +16°C° 0.3 mm 2 mps 740 mmHg 97%
01:00 +15°C° 0.3 mm 1 mps 740 mmHg 97%
02:00 +15°C° 0 mm 1 mps 740 mmHg 97%
03:00 +15°C° 0 mm 1 mps 739 mmHg 98%
04:00 +15°C° 0 mm 1 mps 739 mmHg 98%
05:00 +15°C° 0.3 mm 2 mps 738 mmHg 98%
06:00 +15°C° 0.3 mm 2 mps 738 mmHg 98%
07:00 +16°C° 0.3 mm 3 mps 738 mmHg 98%
08:00 +16°C° 0.5 mm 3 mps 738 mmHg 97%
09:00 +17°C° 0.5 mm 3 mps 738 mmHg 96%
10:00 +18°C° 0.5 mm 3 mps 737 mmHg 95%
11:00 +19°C° 0.1 mm 3 mps 738 mmHg 90%
12:00 +20°C° 0.1 mm 3 mps 738 mmHg 85%
13:00 +21°C° 0.1 mm 3 mps 738 mmHg 80%
14:00 +21°C° 0.3 mm 3 mps 738 mmHg 79%
15:00 +22°C° 0.3 mm 4 mps 738 mmHg 78%
16:00 +22°C° 0.3 mm 4 mps 738 mmHg 76%
17:00 +21°C° 0.4 mm 3 mps 738 mmHg 81%
18:00 +21°C° 0.4 mm 3 mps 738 mmHg 85%
19:00 +20°C° 0.4 mm 2 mps 739 mmHg 90%
20:00 +19°C° 0.2 mm 2 mps 739 mmHg 92%
21:00 +18°C° 0.2 mm 2 mps 739 mmHg 94%
22:00 +16°C° 0.2 mm 1 mps 739 mmHg 96%
23:00 +16°C° 0 mm 1 mps 740 mmHg 97%

Tomorrow, 31 July, Saturday

Time Temperature Precipitation Wind Pressure Humidity
00:00 +15°C° 0 mm 1 mps 740 mmHg 97%
01:00 +15°C° 0 mm 1 mps 740 mmHg 97%
02:00 +15°C° 0 mm 1 mps 740 mmHg 97%
03:00 +13°C° 0 mm 0 mps 741 mmHg 97%
04:00 +13°C° 0 mm 0 mps 741 mmHg 97%
05:00 +15°C° 0 mm 1 mps 741 mmHg 97%
06:00 +15°C° 0 mm 1 mps 741 mmHg 96%
07:00 +16°C° 0 mm 1 mps 741 mmHg 95%
08:00 +18°C° 0 mm 2 mps 741 mmHg 91%
09:00 +19°C° 0 mm 2 mps 741 mmHg 86%
10:00 +20°C° 0 mm 2 mps 741 mmHg 82%
11:00 +21°C° 0.1 mm 3 mps 740 mmHg 80%
12:00 +21°C° 0.1 mm 3 mps 740 mmHg 78%
13:00 +22°C° 0.1 mm 3 mps 740 mmHg 76%
14:00 +23°C° 0.2 mm 4 mps 740 mmHg 75%
15:00 +23°C° 0.2 mm 4 mps 739 mmHg 74%
16:00 +23°C° 0.2 mm 4 mps 739 mmHg 73%
17:00 +23°C° 0.7 mm 4 mps 739 mmHg 78%
18:00 +22°C° 0.7 mm 3 mps 738 mmHg 82%
19:00 +21°C° 0.7 mm 3 mps 738 mmHg 87%
20:00 +21°C° 1.3 mm 3 mps 738 mmHg 90%
21:00 +20°C° 1.3 mm 3 mps 738 mmHg 94%
22:00 +19°C° 1.3 mm 2 mps 738 mmHg 97%
23:00 +18°C° 0 mm 2 mps 738 mmHg 97%

Day after tomorrow, 1 August, Sunday

Time Temperature Precipitation Wind Pressure Humidity
00:00 +18°C° 0 mm 2 mps 739 mmHg 97%
01:00 +17°C° 0 mm 2 mps 739 mmHg 97%
02:00 +17°C° 0 mm 2 mps 739 mmHg 97%
03:00 +16°C° 0 mm 2 mps 739 mmHg 97%
04:00 +16°C° 0 mm 2 mps 739 mmHg 97%
05:00 +16°C° 0 mm 2 mps 740 mmHg 95%
06:00 +17°C° 0 mm 2 mps 740 mmHg 93%
07:00 +17°C° 0 mm 3 mps 740 mmHg 91%
08:00 +19°C° 0 mm 3 mps 740 mmHg 80%
09:00 +20°C° 0 mm 4 mps 741 mmHg 70%
10:00 +22°C° 0 mm 4 mps 741 mmHg 60%
11:00 +23°C° 0.1 mm 5 mps 741 mmHg 59%
12:00 +23°C° 0.1 mm 5 mps 741 mmHg 57%
13:00 +25°C° 0.1 mm 5 mps 741 mmHg 56%
14:00 +23°C° 0.3 mm 5 mps 742 mmHg 59%
15:00 +23°C° 0.3 mm 5 mps 742 mmHg 62%
16:00 +22°C° 0.3 mm 4 mps 742 mmHg 65%
17:00 +22°C° 0.2 mm 4 mps 742 mmHg 70%
18:00 +21°C° 0.2 mm 3 mps 743 mmHg 74%
19:00 +20°C° 0.2 mm 3 mps 743 mmHg 79%
20:00 +18°C° 0 mm 3 mps 743 mmHg 84%
21:00 +17°C° 0 mm 2 mps 743 mmHg 90%
22:00 +15°C° 0 mm 2 mps 744 mmHg 95%
23:00 +15°C° 0 mm 2 mps 744 mmHg 95%

2 August, Monday

Time Temperature Precipitation Wind Pressure Humidity
00:00 +14°C° 0 mm 2 mps 744 mmHg 95%
01:00 +14°C° 0 mm 2 mps 744 mmHg 95%
02:00 +14°C° 0 mm 2 mps 745 mmHg 95%
03:00 +13°C° 0 mm 2 mps 745 mmHg 95%
04:00 +13°C° 0 mm 1 mps 745 mmHg 95%
05:00 +14°C° 0 mm 2 mps 745 mmHg 91%
06:00 +16°C° 0 mm 2 mps 745 mmHg 86%
07:00 +17°C° 0 mm 2 mps 746 mmHg 82%
08:00 +19°C° 0 mm 2 mps 746 mmHg 75%
09:00 +20°C° 0 mm 3 mps 746 mmHg 68%
10:00 +22°C° 0 mm 3 mps 746 mmHg 62%
11:00 +22°C° 0 mm 3 mps 746 mmHg 62%
12:00 +22°C° 0 mm 3 mps 745 mmHg 62%
13:00 +22°C° 0 mm 3 mps 745 mmHg 63%
14:00 +22°C° 0.4 mm 3 mps 745 mmHg 69%
15:00 +22°C° 0.4 mm 3 mps 745 mmHg 76%
16:00 +21°C° 0.4 mm 3 mps 745 mmHg 83%
17:00 +21°C° 0.1 mm 3 mps 745 mmHg 86%
18:00 +21°C° 0.1 mm 2 mps 745 mmHg 89%
19:00 +21°C° 0.1 mm 2 mps 745 mmHg 93%
20:00 +20°C° 0.3 mm 2 mps 744 mmHg 94%
21:00 +20°C° 0.3 mm 1 mps 744 mmHg 96%
22:00 +19°C° 0.3 mm 1 mps 744 mmHg 97%
23:00 +19°C° 0.3 mm 1 mps 744 mmHg 98%

3 August, Tuesday

Time Temperature Precipitation Wind Pressure Humidity
00:00 +19°C° 0.3 mm 1 mps 744 mmHg 98%
01:00 +19°C° 0.3 mm 1 mps 744 mmHg 98%
02:00 +19°C° 0.2 mm 1 mps 744 mmHg 98%
03:00 +18°C° 0.2 mm 1 mps 744 mmHg 98%
04:00 +18°C° 0.2 mm 1 mps 744 mmHg 98%
05:00 +19°C° 0 mm 1 mps 744 mmHg 96%
06:00 +19°C° 0 mm 1 mps 745 mmHg 95%
07:00 +19°C° 0 mm 2 mps 745 mmHg 94%
08:00 +20°C° 0 mm 2 mps 745 mmHg 86%
09:00 +23°C° 0 mm 2 mps 744 mmHg 78%
10:00 +25°C° 0 mm 2 mps 744 mmHg 70%
11:00 +26°C° 0 mm 3 mps 744 mmHg 65%
12:00 +28°C° 0 mm 3 mps 744 mmHg 61%
13:00 +29°C° 0 mm 3 mps 744 mmHg 56%
14:00 +30°C° 0 mm 3 mps 744 mmHg 57%
15:00 +30°C° 0 mm 3 mps 744 mmHg 57%
16:00 +30°C° 0 mm 3 mps 743 mmHg 58%
17:00 +29°C° 0 mm 3 mps 743 mmHg 64%
18:00 +28°C° 0 mm 2 mps 743 mmHg 70%
19:00 +27°C° 0 mm 2 mps 742 mmHg 76%
20:00 +25°C° 0 mm 2 mps 742 mmHg 78%
21:00 +24°C° 0 mm 2 mps 742 mmHg 80%
22:00 +23°C° 0 mm 2 mps 742 mmHg 82%
23:00 +21°C° 0 mm 2 mps 742 mmHg 84%

4 August, Wednesday

Time Temperature Precipitation Wind Pressure Humidity
00:00 +22°C° 0 mm 1 mps 742 mmHg 86%
01:00 +21°C° 0 mm 1 mps 742 mmHg 87%
02:00 +20°C° 0 mm 1 mps 742 mmHg 88%
03:00 +19°C° 0 mm 2 mps 743 mmHg 88%
04:00 +18°C° 0 mm 2 mps 743 mmHg 89%
05:00 +18°C° 0 mm 2 mps 744 mmHg 87%
06:00 +19°C° 0 mm 3 mps 744 mmHg 85%
07:00 +20°C° 0 mm 3 mps 744 mmHg 83%
08:00 +21°C° 0 mm 3 mps 745 mmHg 77%
09:00 +22°C° 0 mm 3 mps 745 mmHg 71%
10:00 +24°C° 0 mm 3 mps 745 mmHg 65%
11:00 +25°C° 0 mm 3 mps 745 mmHg 61%
12:00 +25°C° 0 mm 3 mps 745 mmHg 56%
13:00 +26°C° 0 mm 3 mps 745 mmHg 52%
14:00 +26°C° 0 mm 3 mps 746 mmHg 53%
15:00 +25°C° 0 mm 3 mps 746 mmHg 53%
16:00 +25°C° 0 mm 3 mps 746 mmHg 54%
17:00 +22°C° 0 mm 3 mps 746 mmHg 61%
18:00 +21°C° 0 mm 2 mps 746 mmHg 68%
19:00 +19°C° 0 mm 2 mps 746 mmHg 75%
20:00 +18°C° 0 mm 2 mps 746 mmHg 80%
21:00 +17°C° 0 mm 2 mps 747 mmHg 85%
22:00 +15°C° 0 mm 2 mps 747 mmHg 89%
23:00 +15°C° 0 mm 2 mps 747 mmHg 91%
Show more